Voltar ao catálogo

STARLINK-5484

AtivoComunicaçõesVLEO
NORAD 55628·PAYLOAD·🇺🇸 United States

Lançado Feb 17, 2023 de Vandenberg Space Force Base

Loading…

Próximas Passagens (próximas 24 horas)

TLE

AtualizadoSource: CelesTrak SupGP

Época: Sep 15, 2026, 01:57 UTC

1 55628C 23021A   26258.08173611 -.00028737  00000+0 -24082-2 0  2588
2 55628  70.0001  87.0175 0002636 272.1649 144.0883 14.98346459    14

Acompanhe STARLINK-5484 em tempo real com AllMySat

Download on the App Store